User: anonymous   Login
Location: Gu�tanj
(46.5431°N, 14.9692°E)
Time: 05:59:07
(UTC+00:00)
Language:

Cosmos 2366 rocket - Orbit

View from above orbital plane
View from above orbital plane
View from above satellite
View from above satellite

Ground track
Ground track

The orbit data is extracted from the following two-line orbital elements,

1 25893U 99045B   21216.43284969  .00000048  00000-0  33503-4 0  9991
2 25893  82.9290 341.0312 0028394 191.8123 230.2974 13.76548923102293
Epoch (UTC): 04 August 2021 10:23:18
Eccentricity: 0.0028394
inclination: 82.9290°
perigee height: 955 km
apogee height: 997 km
right ascension of ascending node: 341.0312°
argument of perigee: 191.8123°
revolutions per day: 13.76548923
mean anomaly at epoch: 230.2974°
orbit number at epoch: 10229

The dashed part of the orbit path shows where the satellite is in the earth's shadow,  

DLR